Year,Month,Day,Hour,Minute,Value (Times are PST for temperature in C)
2009,09,22,00,00,11.80
2009,09,22,00,05,11.80
2009,09,22,00,06,11.80
2009,09,22,00,07,11.80
2009,09,22,00,08,11.80
2009,09,22,00,09,11.80
2009,09,22,00,10,11.70
2009,09,22,00,11,11.70
2009,09,22,00,12,11.70
2009,09,22,00,13,11.70
2009,09,22,00,14,11.70
2009,09,22,00,15,11.70
2009,09,22,00,16,11.70
2009,09,22,00,17,11.70
2009,09,22,00,18,11.70
2009,09,22,00,19,11.70
2009,09,22,00,20,11.70
2009,09,22,00,21,11.70
2009,09,22,00,22,11.60
2009,09,22,00,23,11.60
2009,09,22,00,24,11.60
2009,09,22,00,25,11.60
2009,09,22,00,26,11.60
2009,09,22,00,27,11.60
2009,09,22,00,28,11.60
2009,09,22,00,29,11.60
2009,09,22,00,30,11.60
2009,09,22,00,31,11.60
2009,09,22,00,32,11.60
2009,09,22,00,33,11.60
2009,09,22,00,34,11.60
2009,09,22,00,35,11.60
2009,09,22,00,36,11.60
2009,09,22,00,37,11.50
2009,09,22,00,38,11.50
2009,09,22,00,39,11.50
2009,09,22,00,40,11.50
2009,09,22,00,41,11.50
2009,09,22,00,42,11.40
2009,09,22,00,43,11.40
2009,09,22,00,44,11.40
2009,09,22,00,45,11.40
2009,09,22,00,46,11.40
2009,09,22,00,47,11.40
2009,09,22,00,48,11.40
2009,09,22,00,49,11.40
2009,09,22,00,50,11.40
2009,09,22,00,51,11.40
2009,09,22,00,52,11.40
2009,09,22,00,53,11.40
2009,09,22,00,54,11.40
2009,09,22,00,55,11.30
2009,09,22,00,56,11.30
2009,09,22,00,57,11.30
2009,09,22,00,58,11.30
2009,09,22,00,59,11.30
2009,09,22,01,00,11.30
2009,09,22,01,01,11.30
2009,09,22,01,02,11.30
2009,09,22,01,03,11.20
2009,09,22,01,04,11.20
2009,09,22,01,05,11.20
2009,09,22,01,06,11.20
2009,09,22,01,07,11.20
2009,09,22,01,08,11.20
2009,09,22,01,09,11.20
2009,09,22,01,10,11.20
2009,09,22,01,11,11.20
2009,09,22,01,12,11.20
2009,09,22,01,13,11.20
2009,09,22,01,14,11.30
2009,09,22,01,15,11.30
2009,09,22,01,16,11.30
2009,09,22,01,17,11.40
2009,09,22,01,18,11.40
2009,09,22,01,19,11.40
2009,09,22,01,20,11.40
2009,09,22,01,21,11.40
2009,09,22,01,22,11.40
2009,09,22,01,23,11.40
2009,09,22,01,24,11.40
2009,09,22,01,25,11.40
2009,09,22,01,26,11.40
2009,09,22,01,27,11.40
2009,09,22,01,28,11.40
2009,09,22,01,29,11.40
2009,09,22,01,30,11.40
2009,09,22,01,31,11.40
2009,09,22,01,32,11.40
2009,09,22,01,33,11.40
2009,09,22,01,34,11.40
2009,09,22,01,35,11.40
2009,09,22,01,36,11.40
2009,09,22,01,37,11.50
2009,09,22,01,38,11.50
2009,09,22,01,39,11.50
2009,09,22,01,40,11.60
2009,09,22,01,41,11.60
2009,09,22,01,42,11.60
2009,09,22,01,43,11.60
2009,09,22,01,44,11.60
2009,09,22,01,45,11.60
2009,09,22,01,46,11.60
2009,09,22,01,47,11.60
2009,09,22,01,48,11.60
2009,09,22,01,49,11.60
2009,09,22,01,50,11.60
2009,09,22,01,51,11.60
2009,09,22,01,52,11.50
2009,09,22,01,53,11.50
2009,09,22,01,54,11.60
2009,09,22,01,55,11.60
2009,09,22,01,56,11.50
2009,09,22,01,57,11.50
2009,09,22,01,58,11.50
2009,09,22,01,59,11.50
2009,09,22,02,00,11.40
2009,09,22,02,01,11.40
2009,09,22,02,02,11.40
2009,09,22,02,03,11.40
2009,09,22,02,04,11.40
2009,09,22,02,05,11.40
2009,09,22,02,06,11.30
2009,09,22,02,07,11.30
2009,09,22,02,08,11.30
2009,09,22,02,09,11.30
2009,09,22,02,10,11.30
2009,09,22,02,11,11.30
2009,09,22,02,12,11.30
2009,09,22,02,13,11.30
2009,09,22,02,14,11.30
2009,09,22,02,15,11.30
2009,09,22,02,16,11.30
2009,09,22,02,17,11.40
2009,09,22,02,18,11.40
2009,09,22,02,19,11.40
2009,09,22,02,20,11.40
2009,09,22,02,21,11.40
2009,09,22,02,22,11.40
2009,09,22,02,23,11.40
2009,09,22,02,24,11.30
2009,09,22,02,25,11.30
2009,09,22,02,26,11.30
2009,09,22,02,27,11.30
2009,09,22,02,28,11.30
2009,09,22,02,29,11.40
2009,09,22,02,30,11.40
2009,09,22,02,31,11.40
2009,09,22,02,32,11.40
2009,09,22,02,33,11.40
2009,09,22,02,34,11.50
2009,09,22,02,35,11.50
2009,09,22,02,36,11.50
2009,09,22,02,37,11.60
2009,09,22,02,38,11.60
2009,09,22,02,39,11.60
2009,09,22,02,40,11.60
2009,09,22,02,41,11.50
2009,09,22,02,42,11.50
2009,09,22,02,43,11.50
2009,09,22,02,44,11.40
2009,09,22,02,45,11.40
2009,09,22,02,46,11.40
2009,09,22,02,47,11.40
2009,09,22,02,48,11.40
2009,09,22,02,49,11.30
2009,09,22,02,50,11.30
2009,09,22,02,51,11.30
2009,09,22,02,52,11.30
2009,09,22,02,53,11.30
2009,09,22,02,54,11.20
2009,09,22,02,55,11.20
2009,09,22,02,56,11.20
2009,09,22,02,57,11.20
2009,09,22,02,58,11.20
2009,09,22,02,59,11.20
2009,09,22,03,00,11.20
2009,09,22,03,01,11.20
2009,09,22,03,02,11.10
2009,09,22,03,03,11.20
2009,09,22,03,04,11.20
2009,09,22,03,05,11.20
2009,09,22,03,06,11.20
2009,09,22,03,07,11.20
2009,09,22,03,08,11.20
2009,09,22,03,09,11.20
2009,09,22,03,10,11.20
2009,09,22,03,11,11.10
2009,09,22,03,12,11.10
2009,09,22,03,13,11.10
2009,09,22,03,14,11.10
2009,09,22,03,15,11.00
2009,09,22,03,16,11.00
2009,09,22,03,17,10.90
2009,09,22,03,18,10.90
2009,09,22,03,19,10.90
2009,09,22,03,20,10.90
2009,09,22,03,21,10.90
2009,09,22,03,22,11.00
2009,09,22,03,23,11.00
2009,09,22,03,24,10.90
2009,09,22,03,25,10.90
2009,09,22,03,26,10.90
2009,09,22,03,27,10.90
2009,09,22,03,28,11.00
2009,09,22,03,29,11.00
2009,09,22,03,30,11.00
2009,09,22,03,31,11.00
2009,09,22,03,32,11.00
2009,09,22,03,33,11.00
2009,09,22,03,34,11.10
2009,09,22,03,35,11.10
2009,09,22,03,36,11.10
2009,09,22,03,37,11.10
2009,09,22,03,38,11.20
2009,09,22,03,39,11.20
2009,09,22,03,40,11.20
2009,09,22,03,41,11.10
2009,09,22,03,42,11.10
2009,09,22,03,43,11.10
2009,09,22,03,44,11.10
2009,09,22,03,45,11.10
2009,09,22,03,46,11.10
2009,09,22,03,47,11.10
2009,09,22,03,48,11.10
2009,09,22,03,49,11.10
2009,09,22,03,50,11.10
2009,09,22,03,51,11.10
2009,09,22,03,52,11.00
2009,09,22,03,53,11.00
2009,09,22,03,54,11.00
2009,09,22,03,55,11.00
2009,09,22,03,56,11.00
2009,09,22,03,57,11.00
2009,09,22,03,58,11.00
2009,09,22,03,59,11.00
2009,09,22,04,00,11.00
2009,09,22,04,01,10.90
2009,09,22,04,02,10.90
2009,09,22,04,03,10.90
2009,09,22,04,04,10.90
2009,09,22,04,05,10.90
2009,09,22,04,06,11.00
2009,09,22,04,07,11.00
2009,09,22,04,08,11.00
2009,09,22,04,09,11.10
2009,09,22,04,10,11.10
2009,09,22,04,11,11.10
2009,09,22,04,12,11.10
2009,09,22,04,13,11.10
2009,09,22,04,14,11.10
2009,09,22,04,15,11.10
2009,09,22,04,16,11.10
2009,09,22,04,17,11.10
2009,09,22,04,18,11.10
2009,09,22,04,19,11.10
2009,09,22,04,20,11.10
2009,09,22,04,21,11.10
2009,09,22,04,22,11.10
2009,09,22,04,23,11.00
2009,09,22,04,24,11.00
2009,09,22,04,25,11.00
2009,09,22,04,26,11.00
2009,09,22,04,27,11.00
2009,09,22,04,28,11.00
2009,09,22,04,29,11.00
2009,09,22,04,30,10.90
2009,09,22,04,31,10.90
2009,09,22,04,32,10.90
2009,09,22,04,33,10.90
2009,09,22,04,34,10.90
2009,09,22,04,35,10.90
2009,09,22,04,36,10.80
2009,09,22,04,37,10.80
2009,09,22,04,38,10.80
2009,09,22,04,39,10.80
2009,09,22,04,40,10.80
2009,09,22,04,41,10.80
2009,09,22,04,42,10.80
2009,09,22,04,43,10.80
2009,09,22,04,44,10.70
2009,09,22,04,45,10.70
2009,09,22,04,46,10.70
2009,09,22,04,47,10.70
2009,09,22,04,48,10.70
2009,09,22,04,49,10.70
2009,09,22,04,50,10.70
2009,09,22,04,51,10.70
2009,09,22,04,52,10.70
2009,09,22,04,53,10.70
2009,09,22,04,54,10.70
2009,09,22,04,55,10.60
2009,09,22,04,56,10.60
2009,09,22,04,57,10.60
2009,09,22,04,58,10.60
2009,09,22,04,59,10.60
2009,09,22,05,00,10.60
2009,09,22,05,01,10.60
2009,09,22,05,02,10.60
2009,09,22,05,03,10.60
2009,09,22,05,04,10.60
2009,09,22,05,05,10.60
2009,09,22,05,06,10.60
2009,09,22,05,07,10.60
2009,09,22,05,08,10.60
2009,09,22,05,09,10.60
2009,09,22,05,10,10.60
2009,09,22,05,11,10.70
2009,09,22,05,12,10.70
2009,09,22,05,13,10.70
2009,09,22,05,14,10.70
2009,09,22,05,15,10.70
2009,09,22,05,16,10.70
2009,09,22,05,17,10.70
2009,09,22,05,18,10.70
2009,09,22,05,19,10.70
2009,09,22,05,20,10.70
2009,09,22,05,21,10.70
2009,09,22,05,22,10.70
2009,09,22,05,23,10.70
2009,09,22,05,24,10.70
2009,09,22,05,25,10.70
2009,09,22,05,26,10.70
2009,09,22,05,27,10.70
2009,09,22,05,28,10.70
2009,09,22,05,29,10.70
2009,09,22,05,30,10.70
2009,09,22,05,31,10.70
2009,09,22,05,32,10.70
2009,09,22,05,33,10.70
2009,09,22,05,34,10.70
2009,09,22,05,35,10.70
2009,09,22,05,36,10.70
2009,09,22,05,37,10.70
2009,09,22,05,38,10.70
2009,09,22,05,39,10.60
2009,09,22,05,40,10.60
2009,09,22,05,41,10.60
2009,09,22,05,42,10.60
2009,09,22,05,43,10.50
2009,09,22,05,44,10.50
2009,09,22,05,45,10.50
2009,09,22,05,46,10.50
2009,09,22,05,47,10.60
2009,09,22,05,48,10.60
2009,09,22,05,49,10.60
2009,09,22,05,50,10.60
2009,09,22,05,51,10.60
2009,09,22,05,52,10.60
2009,09,22,05,53,10.60
2009,09,22,05,54,10.60
2009,09,22,05,55,10.60
2009,09,22,05,56,10.60
2009,09,22,05,57,10.60
2009,09,22,05,58,10.60
2009,09,22,05,59,10.60
2009,09,22,06,00,10.60
2009,09,22,06,01,10.50
2009,09,22,06,02,10.50
2009,09,22,06,03,10.50
2009,09,22,06,04,10.50
2009,09,22,06,05,10.50
2009,09,22,06,06,10.50
2009,09,22,06,07,10.50
2009,09,22,06,08,10.50
2009,09,22,06,09,10.50
2009,09,22,06,10,10.50
2009,09,22,06,11,10.50
2009,09,22,06,12,10.50
2009,09,22,06,13,10.50
2009,09,22,06,14,10.50
2009,09,22,06,15,10.50
2009,09,22,06,16,10.50
2009,09,22,06,17,10.60
2009,09,22,06,18,10.60
2009,09,22,06,19,10.60
2009,09,22,06,20,10.60
2009,09,22,06,21,10.60
2009,09,22,06,22,10.60
2009,09,22,06,23,10.60
2009,09,22,06,24,10.60
2009,09,22,06,25,10.60
2009,09,22,06,26,10.60
2009,09,22,06,27,10.60
2009,09,22,06,28,10.60
2009,09,22,06,29,10.60
2009,09,22,06,30,10.60
2009,09,22,06,31,10.50
2009,09,22,06,32,10.50
2009,09,22,06,33,10.50
2009,09,22,06,34,10.50
2009,09,22,06,35,10.50
2009,09,22,06,36,10.40
2009,09,22,06,37,10.40
2009,09,22,06,38,10.40
2009,09,22,06,39,10.40
2009,09,22,06,40,10.40
2009,09,22,06,41,10.40
2009,09,22,06,42,10.40
2009,09,22,06,43,10.40
2009,09,22,06,44,10.40
2009,09,22,06,45,10.50
2009,09,22,06,46,10.50
2009,09,22,06,47,10.50
2009,09,22,06,48,10.50
2009,09,22,06,49,10.50
2009,09,22,06,50,10.50
2009,09,22,06,51,10.50
2009,09,22,06,52,10.50
2009,09,22,06,53,10.50
2009,09,22,06,54,10.50
2009,09,22,06,55,10.50
2009,09,22,06,56,10.50
2009,09,22,06,57,10.50
2009,09,22,06,58,10.50
2009,09,22,06,59,10.50
2009,09,22,07,00,10.40
2009,09,22,07,01,10.40
2009,09,22,07,02,10.40
2009,09,22,07,03,10.40
2009,09,22,07,04,10.40
2009,09,22,07,05,10.40
2009,09,22,07,06,10.40
2009,09,22,07,07,10.40
2009,09,22,07,08,10.40
2009,09,22,07,09,10.50
2009,09,22,07,10,10.50
2009,09,22,07,11,10.40
2009,09,22,07,12,10.40
2009,09,22,07,13,10.50
2009,09,22,07,14,10.50
2009,09,22,07,15,10.50
2009,09,22,07,16,10.50
2009,09,22,07,17,10.50
2009,09,22,07,18,10.50
2009,09,22,07,19,10.50
2009,09,22,07,20,10.50
2009,09,22,07,21,10.50
2009,09,22,07,22,10.50
2009,09,22,07,23,10.50
2009,09,22,07,24,10.50
2009,09,22,07,25,10.50
2009,09,22,07,26,10.50
2009,09,22,07,27,10.50
2009,09,22,07,28,10.60
2009,09,22,07,29,10.60
2009,09,22,07,30,10.60
2009,09,22,07,31,10.60
2009,09,22,07,32,10.60
2009,09,22,07,33,10.60
2009,09,22,07,34,10.60
2009,09,22,07,35,10.60
2009,09,22,07,36,10.70
2009,09,22,07,37,10.70
2009,09,22,07,38,10.70
2009,09,22,07,39,10.70
2009,09,22,07,40,10.70
2009,09,22,07,41,10.80
2009,09,22,07,42,10.80
2009,09,22,07,43,10.80
2009,09,22,07,44,10.80
2009,09,22,07,45,10.80
2009,09,22,07,46,10.90
2009,09,22,07,47,10.90
2009,09,22,07,48,10.90
2009,09,22,07,49,10.90
2009,09,22,07,50,11.00
2009,09,22,07,51,11.00
2009,09,22,07,52,11.00
2009,09,22,07,53,11.10
2009,09,22,07,54,11.10
2009,09,22,07,55,11.10
2009,09,22,07,56,11.20
2009,09,22,07,57,11.20
2009,09,22,07,58,11.20
2009,09,22,07,59,11.30
2009,09,22,08,00,11.30
2009,09,22,08,01,11.30
2009,09,22,08,02,11.30
2009,09,22,08,03,11.40
2009,09,22,08,04,11.40
2009,09,22,08,05,11.40
2009,09,22,08,06,11.40
2009,09,22,08,07,11.40
2009,09,22,08,08,11.50
2009,09,22,08,09,11.50
2009,09,22,08,10,11.50
2009,09,22,08,11,11.60
2009,09,22,08,12,11.60
2009,09,22,08,13,11.60
2009,09,22,08,14,11.60
2009,09,22,08,15,11.60
2009,09,22,08,16,11.70
2009,09,22,08,17,11.70
2009,09,22,08,18,11.80
2009,09,22,08,19,11.80
2009,09,22,08,20,11.90
2009,09,22,08,21,11.90
2009,09,22,08,22,11.90
2009,09,22,08,23,12.00
2009,09,22,08,24,12.00
2009,09,22,08,25,12.10
2009,09,22,08,26,12.20
2009,09,22,08,27,12.20
2009,09,22,08,28,12.20
2009,09,22,08,29,12.20
2009,09,22,08,30,12.20
2009,09,22,08,31,12.30
2009,09,22,08,32,12.30
2009,09,22,08,33,12.30
2009,09,22,08,34,12.40
2009,09,22,08,35,12.50
2009,09,22,08,36,12.50
2009,09,22,08,37,12.50
2009,09,22,08,38,12.60
2009,09,22,08,39,12.60
2009,09,22,08,40,12.70
2009,09,22,08,41,12.80
2009,09,22,08,42,12.80
2009,09,22,08,43,12.80
2009,09,22,08,44,12.90
2009,09,22,08,45,13.00
2009,09,22,08,46,13.00
2009,09,22,08,47,13.10
2009,09,22,08,48,13.20
2009,09,22,08,49,13.20
2009,09,22,08,50,13.30
2009,09,22,08,51,13.30
2009,09,22,08,52,13.30
2009,09,22,08,53,13.40
2009,09,22,08,54,13.40
2009,09,22,08,55,13.50
2009,09,22,08,56,13.60
2009,09,22,08,57,13.60
2009,09,22,08,58,13.70
2009,09,22,08,59,13.80
2009,09,22,09,00,13.90
2009,09,22,09,01,14.00
2009,09,22,09,02,14.10
2009,09,22,09,03,14.20
2009,09,22,09,04,14.20
2009,09,22,09,05,14.40
2009,09,22,09,06,14.60
2009,09,22,09,07,14.80
2009,09,22,09,08,15.00
2009,09,22,09,09,15.00
2009,09,22,09,10,15.20
2009,09,22,09,11,15.50
2009,09,22,09,12,15.60
2009,09,22,09,13,15.70
2009,09,22,09,14,15.90
2009,09,22,09,15,16.00
2009,09,22,09,16,16.20
2009,09,22,09,17,16.30
2009,09,22,09,18,16.30
2009,09,22,09,19,16.40
2009,09,22,09,20,16.50
2009,09,22,09,21,16.60
2009,09,22,09,22,16.70
2009,09,22,09,23,16.80
2009,09,22,09,24,16.90
2009,09,22,09,25,17.10
2009,09,22,09,26,17.20
2009,09,22,09,27,17.30
2009,09,22,09,28,17.40
2009,09,22,09,29,17.40
2009,09,22,09,30,17.50
2009,09,22,09,31,17.60
2009,09,22,09,32,17.60
2009,09,22,09,33,17.50
2009,09,22,09,34,17.40
2009,09,22,09,35,17.30
2009,09,22,09,36,17.30
2009,09,22,09,37,17.30
2009,09,22,09,38,17.30
2009,09,22,09,39,17.30
2009,09,22,09,40,17.30
2009,09,22,09,41,17.30
2009,09,22,09,42,17.30
2009,09,22,09,43,17.30
2009,09,22,09,44,17.40
2009,09,22,09,45,17.30
2009,09,22,09,46,17.30
2009,09,22,09,47,17.30
2009,09,22,09,48,17.20
2009,09,22,09,49,17.20
2009,09,22,09,50,17.30
2009,09,22,09,51,17.30
2009,09,22,09,52,17.40
2009,09,22,09,53,17.40
2009,09,22,09,54,17.50
2009,09,22,09,55,17.50
2009,09,22,09,56,17.60
2009,09,22,09,57,17.60
2009,09,22,09,58,17.60
2009,09,22,09,59,17.60
2009,09,22,10,00,17.60
2009,09,22,10,01,17.60
2009,09,22,10,02,17.60
2009,09,22,10,03,17.50
2009,09,22,10,04,17.50
2009,09,22,10,05,17.40
2009,09,22,10,06,17.40
2009,09,22,10,07,17.30
2009,09,22,10,08,17.40
2009,09,22,10,09,17.40
2009,09,22,10,10,17.40
2009,09,22,10,11,17.40
2009,09,22,10,12,17.40
2009,09,22,10,13,17.40
2009,09,22,10,14,17.40
2009,09,22,10,15,17.30
2009,09,22,10,16,17.30
2009,09,22,10,17,17.30
2009,09,22,10,18,17.40
2009,09,22,10,19,17.50
2009,09,22,10,20,17.60
2009,09,22,10,21,17.70
2009,09,22,10,22,17.70
2009,09,22,10,23,17.80
2009,09,22,10,24,17.80
2009,09,22,10,25,17.80
2009,09,22,10,26,17.80
2009,09,22,10,27,17.80
2009,09,22,10,28,17.80
2009,09,22,10,29,17.70
2009,09,22,10,30,17.70
2009,09,22,10,31,17.70
2009,09,22,10,32,17.80
2009,09,22,10,33,17.80
2009,09,22,10,34,18.00
2009,09,22,10,35,18.10
2009,09,22,10,36,18.20
2009,09,22,10,37,18.20
2009,09,22,10,38,18.20
2009,09,22,10,39,18.10
2009,09,22,10,40,18.00
2009,09,22,10,41,17.90
2009,09,22,10,42,17.90
2009,09,22,10,43,17.80
2009,09,22,10,44,17.80
2009,09,22,10,45,17.80
2009,09,22,10,46,17.70
2009,09,22,10,47,17.70
2009,09,22,10,48,17.60
2009,09,22,10,49,17.60
2009,09,22,10,50,17.60
2009,09,22,10,51,17.60
2009,09,22,10,52,17.50
2009,09,22,10,53,17.50
2009,09,22,10,54,17.40
2009,09,22,10,55,17.40
2009,09,22,10,56,17.50
2009,09,22,10,57,17.50
2009,09,22,10,58,17.60
2009,09,22,10,59,17.60
2009,09,22,11,00,17.60
2009,09,22,11,01,17.70
2009,09,22,11,02,17.70
2009,09,22,11,03,17.70
2009,09,22,11,04,17.80
2009,09,22,11,05,17.80
2009,09,22,11,06,17.90
2009,09,22,11,07,17.90
2009,09,22,11,08,17.90
2009,09,22,11,09,17.90
2009,09,22,11,10,17.90
2009,09,22,11,11,17.90
2009,09,22,11,12,18.00
2009,09,22,11,13,18.10
2009,09,22,11,14,18.10
2009,09,22,11,15,18.10
2009,09,22,11,16,18.00
2009,09,22,11,17,18.00
2009,09,22,11,18,17.90
2009,09,22,11,19,17.90
2009,09,22,11,20,17.80
2009,09,22,11,21,17.80
2009,09,22,11,22,17.80
2009,09,22,11,23,17.90
2009,09,22,11,24,17.90
2009,09,22,11,25,17.90
2009,09,22,11,26,18.00
2009,09,22,11,27,18.10
2009,09,22,11,28,18.20
2009,09,22,11,29,18.20
2009,09,22,11,30,18.20
2009,09,22,11,31,18.30
2009,09,22,11,32,18.30
2009,09,22,11,33,18.40
2009,09,22,11,34,18.50
2009,09,22,11,35,18.50
2009,09,22,11,36,18.60
2009,09,22,11,37,18.70
2009,09,22,11,38,18.80
2009,09,22,11,39,18.80
2009,09,22,11,40,18.90
2009,09,22,11,41,19.00
2009,09,22,11,42,19.10
2009,09,22,11,43,19.20
2009,09,22,11,44,19.20
2009,09,22,11,45,19.10
2009,09,22,11,46,19.10
2009,09,22,11,47,19.10
2009,09,22,11,48,19.00
2009,09,22,11,49,19.00
2009,09,22,11,50,19.00
2009,09,22,11,51,19.00
2009,09,22,11,52,19.10
2009,09,22,11,53,19.10
2009,09,22,11,54,19.10
2009,09,22,11,55,19.20
2009,09,22,11,56,19.20
2009,09,22,11,57,19.20
2009,09,22,11,58,19.30
2009,09,22,11,59,19.30
2009,09,22,12,00,19.30
2009,09,22,12,01,19.40
2009,09,22,12,02,19.30
2009,09,22,12,03,19.30
2009,09,22,12,04,19.30
2009,09,22,12,05,19.30
2009,09,22,12,06,19.30
2009,09,22,12,07,19.30
2009,09,22,12,08,19.30
2009,09,22,12,09,19.30
2009,09,22,12,10,19.20
2009,09,22,12,11,19.20
2009,09,22,12,12,19.20
2009,09,22,12,13,19.00
2009,09,22,12,14,19.00
2009,09,22,12,15,18.90
2009,09,22,12,16,18.90
2009,09,22,12,17,18.70
2009,09,22,12,18,18.60
2009,09,22,12,19,18.50
2009,09,22,12,20,18.40
2009,09,22,12,21,18.30
2009,09,22,12,22,18.40
2009,09,22,12,23,18.50
2009,09,22,12,24,18.60
2009,09,22,12,25,18.60
2009,09,22,12,26,18.60
2009,09,22,12,27,18.50
2009,09,22,12,28,18.40
2009,09,22,12,29,18.40
2009,09,22,12,30,18.40
2009,09,22,12,31,18.40
2009,09,22,12,32,18.40
2009,09,22,12,33,18.40
2009,09,22,12,34,18.40
2009,09,22,12,35,18.20
2009,09,22,12,36,18.20
2009,09,22,12,37,18.10
2009,09,22,12,38,18.10
2009,09,22,12,39,18.10
2009,09,22,12,40,18.20
2009,09,22,12,41,18.30
2009,09,22,12,42,18.30
2009,09,22,12,43,18.30
2009,09,22,12,44,18.30
2009,09,22,12,45,18.40
2009,09,22,12,46,18.40
2009,09,22,12,47,18.40
2009,09,22,12,48,18.50
2009,09,22,12,49,18.60
2009,09,22,12,50,18.70
2009,09,22,12,51,18.80
2009,09,22,12,52,18.90
2009,09,22,12,53,18.90
2009,09,22,12,54,19.00
2009,09,22,12,55,19.00
2009,09,22,12,56,19.00
2009,09,22,12,57,19.10
2009,09,22,12,58,19.10
2009,09,22,12,59,19.10
2009,09,22,13,00,19.10
2009,09,22,13,01,19.10
2009,09,22,13,02,19.10
2009,09,22,13,03,19.20
2009,09,22,13,04,19.20
2009,09,22,13,05,19.10
2009,09,22,13,06,19.20
2009,09,22,13,07,19.20
2009,09,22,13,08,19.20
2009,09,22,13,09,19.20
2009,09,22,13,10,19.10
2009,09,22,13,11,19.10
2009,09,22,13,12,19.10
2009,09,22,13,13,19.10
2009,09,22,13,14,19.20
2009,09,22,13,15,19.10
2009,09,22,13,16,19.10
2009,09,22,13,17,19.20
2009,09,22,13,18,19.20
2009,09,22,13,19,19.20
2009,09,22,13,20,19.20
2009,09,22,13,21,19.30
2009,09,22,13,22,19.30
2009,09,22,13,23,19.40
2009,09,22,13,24,19.60
2009,09,22,13,25,19.70
2009,09,22,13,26,19.80
2009,09,22,13,27,19.90
2009,09,22,13,28,19.90
2009,09,22,13,29,20.00
2009,09,22,13,30,20.10
2009,09,22,13,31,20.10
2009,09,22,13,32,20.10
2009,09,22,13,33,20.10
2009,09,22,13,34,20.10
2009,09,22,13,35,20.20
2009,09,22,13,36,20.20
2009,09,22,13,37,20.30
2009,09,22,13,38,20.20
2009,09,22,13,39,20.30
2009,09,22,13,40,20.30
2009,09,22,13,41,20.30
2009,09,22,13,42,20.20
2009,09,22,13,43,20.20
2009,09,22,13,44,20.30
2009,09,22,13,45,20.40
2009,09,22,13,46,20.50
2009,09,22,13,47,20.60
2009,09,22,13,48,20.70
2009,09,22,13,49,20.80
2009,09,22,13,50,20.80
2009,09,22,13,51,20.70
2009,09,22,13,52,20.70
2009,09,22,13,53,20.70
2009,09,22,13,54,20.70
2009,09,22,13,55,20.70
2009,09,22,13,56,20.80
2009,09,22,13,57,20.90
2009,09,22,13,58,20.90
2009,09,22,13,59,20.90
2009,09,22,14,00,20.90
2009,09,22,14,01,21.00
2009,09,22,14,02,21.10
2009,09,22,14,03,21.10
2009,09,22,14,04,21.00
2009,09,22,14,05,20.90
2009,09,22,14,06,20.80
2009,09,22,14,07,20.60
2009,09,22,14,08,20.50
2009,09,22,14,09,20.40
2009,09,22,14,10,20.50
2009,09,22,14,11,20.50
2009,09,22,14,12,20.60
2009,09,22,14,13,20.70
2009,09,22,14,14,20.80
2009,09,22,14,15,20.80
2009,09,22,14,16,20.80
2009,09,22,14,17,20.70
2009,09,22,14,18,20.60
2009,09,22,14,19,20.50
2009,09,22,14,20,20.40
2009,09,22,14,21,20.30
2009,09,22,14,22,20.40
2009,09,22,14,23,20.40
2009,09,22,14,24,20.50
2009,09,22,14,25,20.50
2009,09,22,14,26,20.50
2009,09,22,14,27,20.40
2009,09,22,14,28,20.40
2009,09,22,14,29,20.50
2009,09,22,14,30,20.60
2009,09,22,14,31,20.60
2009,09,22,14,32,20.70
2009,09,22,14,33,20.70
2009,09,22,14,34,20.80
2009,09,22,14,35,20.70
2009,09,22,14,36,20.70
2009,09,22,14,37,20.80
2009,09,22,14,38,20.80
2009,09,22,14,39,20.80
2009,09,22,14,40,20.90
2009,09,22,14,41,20.90
2009,09,22,14,42,20.80
2009,09,22,14,43,20.80
2009,09,22,14,44,20.80
2009,09,22,14,45,20.80
2009,09,22,14,46,20.90
2009,09,22,14,47,20.90
2009,09,22,14,48,21.00
2009,09,22,14,49,21.00
2009,09,22,14,50,21.10
2009,09,22,14,51,21.10
2009,09,22,14,52,21.10
2009,09,22,14,53,21.10
2009,09,22,14,54,21.10
2009,09,22,14,55,21.10
2009,09,22,14,56,21.10
2009,09,22,14,57,21.20
2009,09,22,14,58,21.20
2009,09,22,14,59,21.10
2009,09,22,15,00,21.00
2009,09,22,15,01,21.00
2009,09,22,15,02,20.90
2009,09,22,15,03,20.90
2009,09,22,15,04,20.90
2009,09,22,15,05,20.90
2009,09,22,15,06,20.90
2009,09,22,15,07,20.90
2009,09,22,15,08,20.80
2009,09,22,15,09,20.80
2009,09,22,15,10,20.70
2009,09,22,15,11,20.70
2009,09,22,15,12,20.60
2009,09,22,15,13,20.60
2009,09,22,15,14,20.50
2009,09,22,15,15,20.50
2009,09,22,15,16,20.50
2009,09,22,15,17,20.50
2009,09,22,15,18,20.50
2009,09,22,15,19,20.50
2009,09,22,15,20,20.60
2009,09,22,15,21,20.60
2009,09,22,15,22,20.60
2009,09,22,15,23,20.50
2009,09,22,15,24,20.50
2009,09,22,15,25,20.50
2009,09,22,15,26,20.40
2009,09,22,15,27,20.40
2009,09,22,15,28,20.40
2009,09,22,15,29,20.40
2009,09,22,15,30,20.40
2009,09,22,15,31,20.50
2009,09,22,15,32,20.60
2009,09,22,15,33,20.60
2009,09,22,15,34,20.70
2009,09,22,15,35,20.80
2009,09,22,15,36,20.80
2009,09,22,15,37,20.90
2009,09,22,15,38,21.00
2009,09,22,15,39,21.00
2009,09,22,15,40,21.10
2009,09,22,15,41,21.10
2009,09,22,15,42,21.20
2009,09,22,15,43,21.30
2009,09,22,15,44,21.30
2009,09,22,15,45,21.30
2009,09,22,15,46,21.30
2009,09,22,15,47,21.30
2009,09,22,15,48,21.40
2009,09,22,15,49,21.30
2009,09,22,15,50,21.30
2009,09,22,15,51,21.20
2009,09,22,15,52,21.20
2009,09,22,15,53,21.30
2009,09,22,15,54,21.30
2009,09,22,15,55,21.20
2009,09,22,15,56,21.30
2009,09,22,15,57,21.30
2009,09,22,15,58,21.30
2009,09,22,15,59,21.30
2009,09,22,16,00,21.40
2009,09,22,16,01,21.40
2009,09,22,16,02,21.50
2009,09,22,16,03,21.60
2009,09,22,16,04,21.50
2009,09,22,16,05,21.60
2009,09,22,16,06,21.70
2009,09,22,16,07,21.80
2009,09,22,16,08,21.90
2009,09,22,16,09,22.00
2009,09,22,16,10,22.20
2009,09,22,16,11,22.30
2009,09,22,16,12,22.40
2009,09,22,16,13,22.50
2009,09,22,16,14,22.60
2009,09,22,16,15,22.60
2009,09,22,16,16,22.70
2009,09,22,16,17,22.60
2009,09,22,16,18,22.60
2009,09,22,16,19,22.60
2009,09,22,16,20,22.60
2009,09,22,16,21,22.60
2009,09,22,16,22,22.60
2009,09,22,16,23,22.50
2009,09,22,16,24,22.50
2009,09,22,16,25,22.40
2009,09,22,16,26,22.40
2009,09,22,16,27,22.30
2009,09,22,16,28,22.30
2009,09,22,16,29,22.20
2009,09,22,16,30,22.10
2009,09,22,16,31,22.00
2009,09,22,16,32,21.90
2009,09,22,16,33,21.80
2009,09,22,16,34,21.70
2009,09,22,16,35,21.70
2009,09,22,16,36,21.60
2009,09,22,16,37,21.50
2009,09,22,16,38,21.40
2009,09,22,16,39,21.30
2009,09,22,16,40,21.30
2009,09,22,16,41,21.20
2009,09,22,16,42,21.20
2009,09,22,16,43,21.20
2009,09,22,16,44,21.20
2009,09,22,16,45,21.30
2009,09,22,16,46,21.30
2009,09,22,16,47,21.40
2009,09,22,16,48,21.40
2009,09,22,16,49,21.30
2009,09,22,16,50,21.30
2009,09,22,16,51,21.30
2009,09,22,16,52,21.30
2009,09,22,16,53,21.30
2009,09,22,16,54,21.20
2009,09,22,16,55,21.20
2009,09,22,16,56,21.20
2009,09,22,16,57,21.20
2009,09,22,16,58,21.10
2009,09,22,16,59,21.10
2009,09,22,17,00,21.10
2009,09,22,17,01,21.10
2009,09,22,17,02,21.00
2009,09,22,17,03,21.00
2009,09,22,17,04,21.00
2009,09,22,17,05,20.90
2009,09,22,17,06,20.90
2009,09,22,17,07,20.90
2009,09,22,17,08,20.80
2009,09,22,17,09,20.80
2009,09,22,17,10,20.80
2009,09,22,17,11,20.80
2009,09,22,17,12,20.80
2009,09,22,17,13,20.80
2009,09,22,17,14,20.80
2009,09,22,17,15,20.80
2009,09,22,17,16,20.70
2009,09,22,17,17,20.70
2009,09,22,17,18,20.70
2009,09,22,17,19,20.70
2009,09,22,17,20,20.70
2009,09,22,17,21,20.70
2009,09,22,17,22,20.70
2009,09,22,17,23,20.80